Dyersburg, TN

12:08 PM CST on December 05, 2019 (GMT -0600)
Dyersburg Municipal

Weather History for KDYR - October, 2019

Change the Weather History Date:

Monday, October 28, 2019

  Actual Average Record
Temperature  
Mean Temperature 56 °F -  
Max Temperature 57 °F 66 °F 80 °F (1999)
Min Temperature 55 °F 47 °F 30 °F (1997)
Degree Days  
Heating Degree Days 9    
Growing Degree Days 6 (Base 50)    
Moisture  
Dew Point 55 °F    
Average Humidity 97    
Maximum Humidity 100    
Minimum Humidity 89    
Precipitation  
Precipitation 0.02 in - - ()
Sea Level Pressure  
Sea Level Pressure 30.10 in    
Wind  
Wind Speed 2 mph ()    
Max Wind Speed 6 mph    
Max Gust Speed -    
Visibility 8.0 miles    
Events Rain    
Averages and records for this station are not official NWS values.
T = Trace of Precipitation, MM = Missing Value Source: Averaged Metar Reports

Daily Weather History Graph

Daily Weather History Graph

Search for Another Location

Airport or City:

Astronomy

Oct. 28, 2019 Rise Set
Actual Time 7:16 AM CDT 6:06 PM CDT
Civil Twilight 6:49 AM CDT 6:32 PM CDT
Nautical Twilight 6:19 AM CDT 7:02 PM CDT
Astronomical Twilight 5:49 AM CDT 7:32 PM CDT
Moon 7:38 AM CDT (10/28) 6:51 PM CDT (10/28)
Length of Visible Light 11h 42m
Length of Day
10h 50m
New Moon, 0% of the Moon is Illuminated
Oct 28
New Moon
Nov 4
First Quarter
Nov 12
Full
Nov 19
Last Quarter
Nov 26
New

Hourly Weather History & Observations

Time (CDT) Temp. Dew Point Humidity Pressure Visibility Wind Dir Wind Speed Gust Speed Precip Events Conditions
12:33 AM 55.4 °F 55.4 °F 100% 30.08 in 10.0 mi SE 3.5 mph - N/A   Overcast
12:56 AM 55.9 °F 55.0 °F 97% 30.09 in 10.0 mi Calm Calm - N/A   Overcast
1:56 AM 55.9 °F 55.0 °F 97% 30.09 in 10.0 mi South 4.6 mph - N/A   Overcast
2:56 AM 55.9 °F 55.0 °F 97% 30.09 in 10.0 mi Calm Calm - N/A   Overcast
3:35 AM 55.4 °F 55.4 °F 100% 30.07 in 10.0 mi SW 3.5 mph - N/A   Overcast
3:56 AM 55.9 °F 55.0 °F 97% 30.09 in 10.0 mi WSW 4.6 mph - N/A   Overcast
4:10 AM 55.4 °F 55.4 °F 100% 30.08 in 10.0 mi SSW 3.5 mph - N/A   Overcast
4:56 AM 55.0 °F 55.0 °F 100% 30.11 in 9.0 mi SW 4.6 mph - N/A   Overcast
5:56 AM 55.0 °F 55.0 °F 100% 30.12 in 5.0 mi Calm Calm - 0.00 in Rain Light Rain
6:15 AM 55.4 °F 55.4 °F 100% 30.10 in 8.0 mi Calm Calm - 0.00 in Rain Light Rain
6:29 AM 55.4 °F 55.4 °F 100% 30.11 in 6.0 mi SW 3.5 mph - 0.00 in Rain Light Rain
6:56 AM 55.0 °F 55.0 °F 100% 30.13 in 7.0 mi SW 3.5 mph - 0.01 in Rain Light Rain
7:56 AM 55.0 °F 55.0 °F 100% 30.14 in 5.0 mi Calm Calm - 0.00 in Rain Light Rain
8:04 AM 55.4 °F 55.4 °F 100% 30.12 in 5.0 mi SW 3.5 mph - 0.00 in Rain Light Rain
8:16 AM 55.4 °F 55.4 °F 100% 30.13 in 4.0 mi Calm Calm - 0.00 in Rain Light Rain
8:27 AM 55.4 °F 55.4 °F 100% 30.13 in 4.0 mi Calm Calm - 0.00 in Rain Light Rain
8:56 AM 55.0 °F 54.0 °F 96% 30.15 in 5.0 mi WNW 4.6 mph - 0.01 in Rain Light Rain
9:41 AM 55.4 °F 55.4 °F 100% 30.12 in 7.0 mi West 3.5 mph - 0.00 in   Overcast
9:56 AM 55.0 °F 55.0 °F 100% 30.14 in 9.0 mi West 4.6 mph - 0.00 in   Overcast
10:05 AM 55.4 °F 55.4 °F 100% 30.12 in 8.0 mi West 3.5 mph - N/A   Overcast
10:49 AM 55.4 °F 55.4 °F 100% 30.13 in 2.5 mi West 3.5 mph - N/A   Overcast
10:56 AM 55.9 °F 55.0 °F 97% 30.14 in 2.5 mi West 3.5 mph - N/A   Overcast
11:17 AM 55.4 °F 55.4 °F 100% 30.12 in 4.0 mi WNW 3.5 mph - 0.00 in Rain Light Rain
11:29 AM 57.2 °F 55.4 °F 94% 30.13 in 9.0 mi Calm Calm - 0.00 in   Overcast
11:56 AM 57.0 °F 55.0 °F 93% 30.14 in 9.0 mi Calm Calm - 0.00 in   Overcast
12:14 PM 57.2 °F 55.4 °F 94% 30.11 in 10.0 mi West 3.5 mph - N/A   Overcast
12:56 PM 57.0 °F 55.0 °F 93% 30.11 in 8.0 mi West 3.5 mph - N/A   Overcast
1:15 PM 57.2 °F 55.4 °F 94% 30.09 in 7.0 mi West 4.6 mph - 0.00 in Rain Light Rain
1:56 PM 57.0 °F 55.9 °F 96% 30.09 in 3.0 mi WSW 4.6 mph - 0.00 in   Overcast
2:25 PM 57.2 °F 55.4 °F 94% 30.06 in 10.0 mi Calm Calm - N/A   Overcast
2:56 PM 57.9 °F 55.9 °F 93% 30.08 in 10.0 mi Calm Calm - N/A   Overcast
3:21 PM 57.2 °F 55.4 °F 94% 30.06 in 10.0 mi West 4.6 mph - N/A   Overcast
3:56 PM 57.9 °F 55.0 °F 90% 30.08 in 10.0 mi WSW 3.5 mph - N/A   Overcast
4:56 PM 57.9 °F 55.0 °F 90% 30.08 in 10.0 mi South 3.5 mph - N/A   Overcast
5:06 PM 57.2 °F 55.4 °F 94% 30.06 in 10.0 mi Calm Calm - N/A   Overcast
5:56 PM 57.9 °F 55.9 °F 93% 30.08 in 10.0 mi Calm Calm - N/A   Overcast
6:56 PM 57.0 °F 55.9 °F 96% 30.08 in 10.0 mi Calm Calm - N/A   Overcast
7:56 PM 57.0 °F 55.0 °F 93% 30.09 in 10.0 mi Calm Calm - N/A   Overcast
9:56 PM 57.0 °F 54.0 °F 89% 30.11 in 10.0 mi SE 5.8 mph - N/A   Overcast
10:56 PM 55.9 °F 54.0 °F 93% 30.12 in 10.0 mi SSE 4.6 mph - N/A   Overcast
11:56 PM 55.9 °F 54.0 °F 93% 30.12 in 10.0 mi SSE 3.5 mph - N/A   Overcast